Time,TemperatureF,DewpointF,PressureIn,WindDirection,WindDirectionDegrees,WindSpeedMPH,WindSpeedGustMPH,Humidity,HourlyPrecipIn,Conditions,Clouds,dailyrainin,SolarRadiationWatts/m^2,SoftwareType,DateUTC
2013-10-21 00:02:00,32.0,26.0,-100.00,West,277,3.0,6.0,77,0.00,,,0.54,0.000000,,2013-10-21 06:02:00,
2013-10-21 00:12:00,32.0,26.0,-100.00,West,277,3.0,6.0,77,0.00,,,0.54,0.000000,,2013-10-21 06:12:00,
2013-10-21 00:42:00,37.0,27.0,-100.00,West,265,3.0,8.0,68,0.00,,,0.53,0.000000,,2013-10-21 06:42:00,
2013-10-21 00:52:00,37.0,27.0,-100.00,West,265,3.0,8.0,68,0.00,,,0.53,0.000000,,2013-10-21 06:52:00,
2013-10-21 01:02:00,37.0,27.0,-100.00,West,265,3.0,8.0,68,0.00,,,0.53,0.000000,,2013-10-21 07:02:00,
2013-10-21 01:11:00,37.0,27.0,-100.00,West,265,3.0,8.0,68,0.00,,,0.53,0.000000,,2013-10-21 07:11:00,
2013-10-21 01:43:00,36.0,28.0,-100.00,West,280,3.0,6.0,73,0.00,,,-99.99,0.000000,,2013-10-21 07:43:00,
2013-10-21 01:52:00,36.0,28.0,-100.00,West,280,3.0,6.0,73,0.00,,,-99.99,0.000000,,2013-10-21 07:52:00,
2013-10-21 02:02:00,36.0,28.0,-100.00,West,280,3.0,6.0,73,0.00,,,-99.99,0.000000,,2013-10-21 08:02:00,
2013-10-21 02:11:00,36.0,28.0,-100.00,West,280,3.0,6.0,73,0.00,,,-99.99,0.000000,,2013-10-21 08:11:00,
2013-10-21 02:42:00,36.0,29.0,-100.00,WNW,296,3.0,5.0,75,0.00,,,-99.99,0.000000,,2013-10-21 08:42:00,
2013-10-21 02:52:00,36.0,29.0,-100.00,WNW,296,3.0,5.0,75,0.00,,,-99.99,0.000000,,2013-10-21 08:52:00,
2013-10-21 03:02:00,36.0,29.0,-100.00,WNW,296,3.0,5.0,75,0.00,,,-99.99,0.000000,,2013-10-21 09:02:00,
2013-10-21 03:11:00,36.0,29.0,-100.00,WNW,296,3.0,5.0,75,0.00,,,-99.99,0.000000,,2013-10-21 09:11:00,
2013-10-21 03:43:00,36.0,29.0,-100.00,WNW,299,2.0,5.0,74,0.00,,,0.53,0.000000,,2013-10-21 09:43:00,
2013-10-21 03:53:00,36.0,29.0,-100.00,WNW,299,2.0,5.0,74,0.00,,,0.53,0.000000,,2013-10-21 09:53:00,
2013-10-21 04:03:00,36.0,29.0,-100.00,WNW,299,2.0,5.0,74,0.00,,,0.53,0.000000,,2013-10-21 10:03:00,
2013-10-21 04:12:00,36.0,29.0,-100.00,WNW,299,2.0,5.0,74,0.00,,,0.53,0.000000,,2013-10-21 10:12:00,
2013-10-21 04:43:00,38.0,26.0,-100.00,West,272,4.0,9.0,61,0.00,,,-99.99,0.000000,,2013-10-21 10:43:00,
2013-10-21 04:52:00,38.0,26.0,-100.00,West,272,4.0,9.0,61,0.00,,,-99.99,0.000000,,2013-10-21 10:52:00,
2013-10-21 05:02:00,38.0,26.0,-100.00,West,272,4.0,9.0,61,0.00,,,-99.99,0.000000,,2013-10-21 11:02:00,
2013-10-21 05:12:00,38.0,26.0,-100.00,West,272,4.0,9.0,61,0.00,,,-99.99,0.000000,,2013-10-21 11:12:00,
2013-10-21 05:42:00,37.0,27.0,-100.00,West,266,4.0,12.0,67,0.00,,,-99.99,0.000000,,2013-10-21 11:42:00,
2013-10-21 05:52:00,37.0,27.0,-100.00,West,266,4.0,12.0,67,0.00,,,-99.99,0.000000,,2013-10-21 11:52:00,
2013-10-21 06:01:00,37.0,27.0,-100.00,West,266,4.0,12.0,67,0.00,,,-99.99,0.000000,,2013-10-21 12:01:00,
2013-10-21 06:12:00,37.0,27.0,-100.00,West,266,4.0,12.0,67,0.00,,,-99.99,0.000000,,2013-10-21 12:12:00,
2013-10-21 06:42:00,35.0,26.0,-100.00,West,266,4.0,10.0,69,0.00,,,0.53,0.000000,,2013-10-21 12:42:00,
2013-10-21 06:52:00,35.0,26.0,-100.00,West,266,4.0,10.0,69,0.00,,,0.53,0.000000,,2013-10-21 12:52:00,
2013-10-21 07:02:00,35.0,26.0,-100.00,West,266,4.0,10.0,69,0.00,,,0.53,0.000000,,2013-10-21 13:02:00,
2013-10-21 07:11:00,35.0,26.0,-100.00,West,266,4.0,10.0,69,0.00,,,0.53,0.000000,,2013-10-21 13:11:00,
2013-10-21 07:42:00,34.0,26.0,-100.00,WNW,293,4.0,8.0,73,0.00,,,0.53,0.000000,,2013-10-21 13:42:00,
2013-10-21 07:52:00,34.0,26.0,-100.00,WNW,293,4.0,8.0,73,0.00,,,0.53,0.000000,,2013-10-21 13:52:00,
2013-10-21 08:02:00,34.0,26.0,-100.00,WNW,293,4.0,8.0,73,0.00,,,0.53,0.000000,,2013-10-21 14:02:00,
2013-10-21 08:11:00,34.0,26.0,-100.00,WNW,293,4.0,8.0,73,0.00,,,0.53,0.000000,,2013-10-21 14:11:00,
2013-10-21 08:42:00,37.0,26.0,-100.00,WNW,287,3.0,7.0,64,0.00,,,0.53,21.000000,,2013-10-21 14:42:00,
2013-10-21 08:52:00,37.0,26.0,-100.00,WNW,287,3.0,7.0,64,0.00,,,0.53,21.000000,,2013-10-21 14:52:00,
2013-10-21 09:02:00,37.0,26.0,-100.00,WNW,287,3.0,7.0,64,0.00,,,0.53,21.000000,,2013-10-21 15:02:00,
2013-10-21 09:12:00,37.0,26.0,-100.00,WNW,287,3.0,7.0,64,0.00,,,0.53,21.000000,,2013-10-21 15:12:00,
2013-10-21 09:53:00,45.0,29.0,-100.00,ESE,115,1.0,6.0,54,0.00,,,-99.99,121.000000,,2013-10-21 15:53:00,
2013-10-21 10:03:00,45.0,29.0,-100.00,ESE,115,1.0,6.0,54,0.00,,,-99.99,121.000000,,2013-10-21 16:03:00,
2013-10-21 10:13:00,45.0,29.0,-100.00,ESE,115,1.0,6.0,54,0.00,,,-99.99,121.000000,,2013-10-21 16:13:00,
2013-10-21 10:43:00,49.0,24.0,-100.00,WSW,249,5.0,14.0,37,0.00,,,-99.99,241.000000,,2013-10-21 16:43:00,
2013-10-21 10:53:00,49.0,24.0,-100.00,WSW,249,5.0,14.0,37,0.00,,,-99.99,241.000000,,2013-10-21 16:53:00,
2013-10-21 11:02:00,49.0,24.0,-100.00,WSW,249,5.0,14.0,37,0.00,,,-99.99,241.000000,,2013-10-21 17:02:00,
2013-10-21 11:12:00,49.0,24.0,-100.00,WSW,249,5.0,14.0,37,0.00,,,-99.99,241.000000,,2013-10-21 17:12:00,
2013-10-21 11:43:00,45.0,27.0,-100.00,East,95,8.0,15.0,49,0.00,,,0.53,278.000000,,2013-10-21 17:43:00,
2013-10-21 11:53:00,45.0,27.0,-100.00,East,95,8.0,15.0,49,0.00,,,0.53,278.000000,,2013-10-21 17:53:00,
2013-10-21 12:02:00,45.0,27.0,-100.00,East,95,8.0,15.0,49,0.00,,,0.53,278.000000,,2013-10-21 18:02:00,
2013-10-21 12:12:00,45.0,27.0,-100.00,East,95,8.0,15.0,49,0.00,,,0.53,278.000000,,2013-10-21 18:12:00,
2013-10-21 12:42:00,51.0,28.0,-100.00,ENE,68,2.0,15.0,40,0.00,,,0.24,358.000000,,2013-10-21 18:42:00,
2013-10-21 12:52:00,51.0,28.0,-100.00,ENE,68,2.0,15.0,40,0.00,,,0.24,358.000000,,2013-10-21 18:52:00,
2013-10-21 13:02:00,51.0,28.0,-100.00,ENE,68,2.0,15.0,40,0.00,,,0.24,358.000000,,2013-10-21 19:02:00,
2013-10-21 13:11:00,51.0,28.0,-100.00,ENE,68,2.0,15.0,40,0.00,,,0.24,358.000000,,2013-10-21 19:11:00,
2013-10-21 13:42:00,55.0,23.0,-100.00,WNW,291,5.0,12.0,29,0.00,,,0.06,684.000000,,2013-10-21 19:42:00,
2013-10-21 13:52:00,55.0,23.0,-100.00,WNW,291,5.0,12.0,29,0.00,,,0.06,684.000000,,2013-10-21 19:52:00,
2013-10-21 14:01:00,55.0,23.0,-100.00,WNW,291,5.0,12.0,29,0.00,,,0.06,684.000000,,2013-10-21 20:01:00,
2013-10-21 14:11:00,55.0,23.0,-100.00,WNW,291,5.0,12.0,29,0.00,,,0.06,684.000000,,2013-10-21 20:11:00,
2013-10-21 14:43:00,54.0,26.0,-100.00,West,277,5.0,13.0,33,0.00,,,0.00,666.000000,,2013-10-21 20:43:00,
2013-10-21 14:52:00,54.0,26.0,-100.00,West,277,5.0,13.0,33,0.00,,,0.00,666.000000,,2013-10-21 20:52:00,
2013-10-21 15:03:00,54.0,26.0,-100.00,West,277,5.0,13.0,33,0.00,,,0.00,666.000000,,2013-10-21 21:03:00,
2013-10-21 15:12:00,54.0,26.0,-100.00,West,277,5.0,13.0,33,0.00,,,0.00,666.000000,,2013-10-21 21:12:00,
2013-10-21 15:44:00,54.0,28.0,-100.00,West,278,4.0,12.0,36,0.00,,,-99.99,532.000000,,2013-10-21 21:44:00,
2013-10-21 15:54:00,54.0,28.0,-100.00,West,278,4.0,12.0,36,0.00,,,-99.99,532.000000,,2013-10-21 21:54:00,
2013-10-21 16:04:00,54.0,28.0,-100.00,West,278,4.0,12.0,36,0.00,,,-99.99,532.000000,,2013-10-21 22:04:00,
2013-10-21 16:13:00,54.0,28.0,-100.00,West,278,4.0,12.0,36,0.00,,,-99.99,532.000000,,2013-10-21 22:13:00,
2013-10-21 16:44:00,53.0,27.0,-100.00,West,277,2.0,14.0,37,0.00,,,0.00,395.000000,,2013-10-21 22:44:00,
2013-10-21 16:53:00,53.0,27.0,-100.00,West,277,2.0,14.0,37,0.00,,,0.00,395.000000,,2013-10-21 22:53:00,
2013-10-21 17:03:00,53.0,27.0,-100.00,West,277,2.0,14.0,37,0.00,,,0.00,395.000000,,2013-10-21 23:03:00,
2013-10-21 17:12:00,53.0,27.0,-100.00,West,277,2.0,14.0,37,0.00,,,0.00,395.000000,,2013-10-21 23:12:00,
2013-10-21 17:42:00,48.0,29.0,-100.00,NW,304,2.0,13.0,47,0.00,,,0.00,100.000000,,2013-10-21 23:42:00,
2013-10-21 17:53:00,48.0,29.0,-100.00,NW,304,2.0,13.0,47,0.00,,,0.00,100.000000,,2013-10-21 23:53:00,
2013-10-21 18:02:00,48.0,29.0,-100.00,NW,304,2.0,13.0,47,0.00,,,0.00,100.000000,,2013-10-22 00:02:00,
2013-10-21 18:12:00,48.0,29.0,-100.00,NW,304,2.0,13.0,47,0.00,,,0.00,100.000000,,2013-10-22 00:12:00,
2013-10-21 18:42:00,44.0,31.0,-100.00,NE,56,3.0,7.0,59,0.00,,,0.00,44.000000,,2013-10-22 00:42:00,
2013-10-21 18:53:00,44.0,31.0,-100.00,NE,56,3.0,7.0,59,0.00,,,0.00,44.000000,,2013-10-22 00:53:00,
2013-10-21 19:02:00,44.0,31.0,-100.00,NE,56,3.0,7.0,59,0.00,,,0.00,44.000000,,2013-10-22 01:02:00,
2013-10-21 19:12:00,44.0,31.0,-100.00,NE,56,3.0,7.0,59,0.00,,,0.00,44.000000,,2013-10-22 01:12:00,
2013-10-21 19:42:00,39.0,29.0,-100.00,West,263,4.0,8.0,67,0.00,,,0.00,2.000000,,2013-10-22 01:42:00,
2013-10-21 19:52:00,39.0,29.0,-100.00,West,263,4.0,8.0,67,0.00,,,0.00,2.000000,,2013-10-22 01:52:00,
2013-10-21 20:02:00,39.0,29.0,-100.00,West,263,4.0,8.0,67,0.00,,,0.00,2.000000,,2013-10-22 02:02:00,
2013-10-21 20:11:00,39.0,29.0,-100.00,West,263,4.0,8.0,67,0.00,,,0.00,2.000000,,2013-10-22 02:11:00,
2013-10-21 20:43:00,36.0,29.0,-100.00,West,271,4.0,7.0,75,0.00,,,0.00,0.000000,,2013-10-22 02:43:00,
2013-10-21 20:52:00,36.0,29.0,-100.00,West,271,4.0,7.0,75,0.00,,,0.00,0.000000,,2013-10-22 02:52:00,
2013-10-21 21:03:00,36.0,29.0,-100.00,West,271,4.0,7.0,75,0.00,,,0.00,0.000000,,2013-10-22 03:03:00,
2013-10-21 21:12:00,36.0,29.0,-100.00,West,271,4.0,7.0,75,0.00,,,0.00,0.000000,,2013-10-22 03:12:00,
2013-10-21 21:45:00,34.0,30.0,-100.00,WNW,285,2.0,6.0,84,0.00,,,0.00,0.000000,,2013-10-22 03:45:00,
2013-10-21 22:43:00,36.0,29.0,-100.00,WNW,286,3.0,8.0,77,-99.99,,,-99.99,0.000000,,2013-10-22 04:43:00,
2013-10-21 22:55:00,36.0,29.0,-100.00,WNW,286,3.0,8.0,77,-99.99,,,-99.99,0.000000,,2013-10-22 04:55:00,
2013-10-21 23:04:00,36.0,29.0,-100.00,WNW,286,3.0,8.0,77,-99.99,,,-99.99,0.000000,,2013-10-22 05:04:00,
2013-10-21 23:13:00,36.0,29.0,-100.00,WNW,286,3.0,8.0,77,-99.99,,,-99.99,0.000000,,2013-10-22 05:13:00,
2013-10-21 23:43:00,36.0,29.0,-100.00,WNW,303,4.0,7.0,77,0.00,,,-99.99,0.000000,,2013-10-22 05:43:00,
2013-10-21 23:52:00,36.0,29.0,-100.00,WNW,303,4.0,7.0,77,0.00,,,-99.99,0.000000,,2013-10-22 05:52:00,